Nassau, Bahamas

7:40 PM EST on January 21, 2017 (GMT -0500)
Nassau International Airport

Weather History for MYNN - October, 2013

Change the Weather History Date:

Wednesday, October 16, 2013

  Actual Average Record
Temperature  
Mean Temperature 82 °F -  
Max Temperature 86 °F 83 °F 89 °F (2014)
Min Temperature 77 °F 70 °F 35 °F (2012)
Cooling Degree Days 16    
Growing Degree Days 32 (Base 50)    
Moisture  
Dew Point 72 °F    
Average Humidity 73    
Maximum Humidity 89    
Minimum Humidity 60    
Precipitation  
Precipitation 0.00 in 0.15 in - ()
Sea Level Pressure  
Sea Level Pressure 29.91 in    
Wind  
Wind Speed 4 mph ()    
Max Wind Speed 12 mph    
Max Gust Speed -    
Visibility 6.8 miles    
Events      
Averages and records for this station are not official NWS values.
T = Trace of Precipitation, MM = Missing Value Source: Averaged Metar Reports

Daily Weather History Graph

Daily Weather History Graph

Search for Another Location

Airport or City:

Trip Planner

Search our weather history database for the weather conditions in past years. The results will help you decide how hot, cold, wet, or windy it might be!

Date:

Astronomy

Oct. 16, 2013 Rise Set
Actual Time 7:08 AM EDT 6:41 PM EDT
Civil Twilight 6:45 AM EDT 7:04 PM EDT
Nautical Twilight 6:18 AM EDT 7:31 PM EDT
Astronomical Twilight 5:52 AM EDT 7:57 PM EDT
Moon 5:09 PM EDT (10/16) 4:47 AM EDT (10/16)
Length of Visible Light 12h 19m
Length of Day
11h 32m
Waxing Gibbous, 94% of the Moon is Illuminated
Oct 16
Waxing Gibbous
Oct 18
Full
Oct 26
Last Quarter
Nov 3
New
Nov 10
First Quarter

Hourly Weather History & Observations

Time (EDT) Temp. Heat Index Dew Point Humidity Pressure Visibility Wind Dir Wind Speed Gust Speed Precip Events Conditions
12:00 AM 80.6 °F 83.9 °F 69.8 °F 70% 29.91 in 6.2 mi NE 3.5 mph - N/A   Partly Cloudy
1:00 AM 78.8 °F - 73.4 °F 83% 29.92 in 6.2 mi Variable 2.3 mph - N/A   Partly Cloudy
2:00 AM 78 °F - 73 °F 81% 29.90 in 8 mi Calm Calm - -   Partly Cloudy
2:00 AM 77.0 °F - 73.4 °F 89% 29.90 in 6.2 mi Calm Calm - N/A   Partly Cloudy
3:00 AM 78.8 °F - 69.8 °F 74% 29.88 in 6.2 mi ESE 3.5 mph - N/A   Scattered Clouds
4:00 AM 78.8 °F - 69.8 °F 74% 29.88 in 6.2 mi NNE 3.5 mph - N/A   Scattered Clouds
5:00 AM 79 °F - 75 °F 85% 29.87 in 8 mi NNE 3.5 mph - -   Scattered Clouds
5:00 AM 78.8 °F - 73.4 °F 83% 29.87 in 6.2 mi NNE 3.5 mph - N/A   Partly Cloudy
6:00 AM 78.8 °F - 69.8 °F 74% 29.88 in 6.2 mi NE 3.5 mph - N/A   Partly Cloudy
7:00 AM 78.8 °F - 71.6 °F 78% 29.90 in 6.2 mi NNE 3.5 mph - N/A   Scattered Clouds
9:00 AM 82.4 °F 86.3 °F 69.8 °F 66% 29.92 in 6.2 mi NNE 6.9 mph - N/A   Scattered Clouds
10:00 AM 82.4 °F 86.3 °F 69.8 °F 66% 29.94 in 6.2 mi ENE 8.1 mph - N/A   Scattered Clouds
11:00 AM 85 °F - - % 29.95 in 9 mi ENE 9.2 mph - -   Partly Cloudy
11:00 AM 84.2 °F 90.9 °F 73.4 °F 70% 29.94 in 6.2 mi ENE 9.2 mph - N/A   Scattered Clouds
12:00 PM 84.2 °F 88.4 °F 69.8 °F 62% 29.93 in 6.2 mi ENE 6.9 mph - N/A   Scattered Clouds
1:00 PM 84.2 °F 88.4 °F 69.8 °F 62% 29.91 in 6.2 mi NE 8.1 mph - N/A   Scattered Clouds
2:00 PM 85 °F - 73 °F 60% 29.90 in 9 mi NE 5.8 mph - -   Partly Cloudy
2:00 PM 86.0 °F 93.4 °F 73.4 °F 66% 29.90 in 6.2 mi NE 5.8 mph - N/A   Scattered Clouds
3:00 PM 84.2 °F 89.6 °F 71.6 °F 66% 29.90 in 6.2 mi ENE 9.2 mph - N/A   Scattered Clouds
4:00 PM 84.2 °F 90.9 °F 73.4 °F 70% 29.89 in 6.2 mi ENE 11.5 mph - N/A   Partly Cloudy
5:00 PM 85 °F - 74 °F 62% 29.89 in 9 mi ENE 10.4 mph - -   Partly Cloudy
5:00 PM 84.2 °F 90.9 °F 73.4 °F 70% 29.89 in 6.2 mi ENE 10.4 mph - N/A   Partly Cloudy
6:00 PM 82.4 °F 88.2 °F 73.4 °F 74% 29.89 in 6.2 mi ENE 6.9 mph - N/A   Partly Cloudy
7:00 PM 80.6 °F 85.4 °F 73.4 °F 79% 29.91 in 6.2 mi NE 4.6 mph - N/A   Partly Cloudy
8:00 PM 81 °F - 71 °F 64% 29.92 in 9 mi ENE 4.6 mph - -   Partly Cloudy
8:00 PM 80.6 °F 84.6 °F 71.6 °F 74% 29.92 in 6.2 mi ENE 4.6 mph - N/A   Partly Cloudy
9:00 PM 80.6 °F 85.4 °F 73.4 °F 79% 29.94 in 6.2 mi ENE 6.9 mph - N/A   Partly Cloudy
10:00 PM 80.6 °F 85.4 °F 73.4 °F 79% 29.95 in 6.2 mi East 11.5 mph - N/A   Partly Cloudy
11:00 PM 79 °F - 71 °F 71% 29.94 in 9 mi NE 3.5 mph - -   Scattered Clouds
11:00 PM 78.8 °F - 71.6 °F 78% 29.93 in 6.2 mi NE 3.5 mph - N/A   Partly Cloudy